FW6490 Weather Reports


time (UTC)temp
C
wind
direction
speed
KPH
gust
KPH
rain 1hr
cm
rain 24hr
cm
rain mn
cm
humidity
%
barometer
mb
20260831232417 21 313 6.4 16.1 0.00 0.00 0.00 63 1008.5
20260831231914 21 341 6.4 16.1 0.00 0.00 0.00 63 1008.5
20260831231414 20 308 8.0 16.1 0.00 0.00 0.00 64 1008.5
20260831230910 20 310 8.0 16.1 0.00 0.00 0.00 65 1008.6
20260831230414 21 307 8.0 16.1 0.00 0.00 0.00 64 1008.6
20260831225912 20 323 8.0 19.3 0.00 0.00 0.00 64 1008.6
20260831225407 20 315 8.0 19.3 0.00 0.00 0.00 64 1008.7
20260831224910 21 321 8.0 17.7 0.00 0.00 0.00 62 1008.7
20260831223405 21 313 8.0 16.1 0.00 0.00 0.00 61 1008.9
20260831222903 21 306 8.0 17.7 0.00 0.00 0.00 62 1008.9
20260831222401 21 326 8.0 17.7 0.00 0.00 0.00 62 1009.0
20260831221901 21 281 8.0 17.7 0.00 0.00 0.00 62 1009.0
20260831221358 21 321 8.0 17.7 0.00 0.00 0.00 61 1009.1
20260831220356 21 260 9.7 19.3 0.00 0.00 0.00 61 1009.1
20260831215356 22 317 6.4 16.1 0.00 0.00 0.00 58 1009.1
20260831214856 22 348 6.4 16.1 0.00 0.00 0.00 59 1009.1
20260831214352 22 331 6.4 16.1 0.00 0.00 0.00 59 1009.2
20260831213852 22 350 6.4 16.1 0.00 0.00 0.00 59 1009.2
20260831213351 22 347 6.4 16.1 0.00 0.00 0.00 58 1009.2
20260831212851 22 323 6.4 16.1 0.00 0.00 0.00 57 1009.2
20260831211850 22 306 6.4 14.5 0.00 0.00 0.00 58 1009.2
20260831211351 23 313 6.4 14.5 0.00 0.00 0.00 57 1009.2
20260831210848 23 30 6.4 16.1 0.00 0.00 0.00 57 1009.2
20260831210347 23 349 4.8 16.1 0.00 0.00 0.00 57 1009.2
20260831205847 23 319 4.8 17.7 0.00 0.00 0.00 58 1009.2
20260831205345 23 304 4.8 17.7 0.00 0.00 0.00 58 1009.2
20260831204844 23 306 4.8 11.3 0.00 0.00 0.00 58 1009.2
20260831204346 23 15 4.8 12.9 0.00 0.00 0.00 57 1009.2
20260831203844 23 343 4.8 12.9 0.00 0.00 0.00 57 1009.2
20260831203342 23 300 4.8 11.3 0.00 0.00 0.00 57 1009.2
20260831202844 23 322 4.8 11.3 0.00 0.00 0.00 57 1009.2
20260831202342 23 336 3.2 9.7 0.00 0.00 0.00 58 1009.2
20260831201840 23 0 3.2 11.3 0.00 0.00 0.00 58 1009.2
20260831200835 22 355 3.2 8.0 0.00 0.00 0.00 58 1009.3
20260831200334 22 355 3.2 8.0 0.00 0.00 0.00 60 1009.3
20260831195830 22 346 3.2 8.0 0.00 0.00 0.00 62 1009.7
20260831195324 21 321 1.6 8.0 0.00 0.00 0.00 61 1009.7
20260831194824 22 108 1.6 8.0 0.00 0.00 0.00 59 1009.8
20260831194321 22 341 3.2 8.0 0.00 0.00 0.00 62 1009.8
20260831193819 21 340 3.2 8.0 0.00 0.00 0.00 62 1009.8
20260831193317 21 341 3.2 8.0 0.00 0.00 0.00 63 1009.8
20260831192815 21 327 3.2 8.0 0.00 0.00 0.00 64 1010.1
20260831192315 21 325 3.2 8.0 0.00 0.00 0.00 64 1010.1
20260831191816 21 323 3.2 9.7 0.00 0.00 0.00 64 1010.1
20260831190809 20 35 1.6 6.4 0.00 0.00 0.00 67 1010.2
20260831190311 20 226 1.6 8.0 0.00 0.00 0.00 67 1010.2
20260831185805 20 344 3.2 8.0 0.00 0.00 0.00 67 1010.2
20260831184802 19 41 3.2 11.3 0.00 0.00 0.00 70 1010.2
20260831184300 18 71 3.2 8.0 0.00 0.00 0.00 70 1010.3
20260831183800 18 38 3.2 9.7 0.00 0.00 0.00 69 1010.3
20260831183255 18 335 3.2 9.7 0.00 0.00 0.00 70 1010.3
20260831182755 18 47 3.2 8.0 0.00 0.00 0.00 71 1010.6
20260831182256 18 30 3.2 8.0 0.00 0.00 0.00 71 1010.6
20260831181759 18 28 3.2 11.3 0.00 0.00 0.00 71 1010.6
20260831181253 18 331 3.2 11.3 0.00 0.00 0.00 72 1010.5
20260831180752 18 74 3.2 9.7 0.00 0.00 0.00 72 1010.5
20260831180250 18 36 3.2 8.0 0.00 0.00 0.00 73 1010.5
20260831175748 17 5 3.2 8.0 0.00 0.00 0.00 75 1010.3
20260831174246 16 272 1.6 6.4 0.00 0.00 0.00 77 1010.1
20260831173743 16 271 1.6 4.8 0.00 0.00 0.00 76 1010.1
20260831172741 16 271 1.6 6.4 0.00 0.00 0.00 78 1010.2
20260831172239 16 271 1.6 6.4 0.00 0.00 0.00 78 1010.2
20260831171741 15 271 1.6 6.4 0.00 0.00 0.00 79 1010.2
20260831171236 15 271 1.6 6.4 0.00 0.00 0.00 79 1010.2
20260831170737 15 271 1.6 6.4 0.00 0.00 0.00 80 1010.2
20260831170236 15 271 1.6 6.4 0.00 0.00 0.00 80 1010.2
20260831165740 15 271 1.6 8.0 0.00 0.00 0.00 80 1010.1
20260831165234 15 271 3.2 8.0 0.00 0.00 0.00 80 1010.1
20260831164232 15 271 1.6 6.4 0.00 0.00 0.00 80 1010.1
20260831163732 15 271 0.0 4.8 0.00 0.00 0.00 81 1010.1
20260831163232 15 271 0.0 3.2 0.00 0.00 0.00 81 1010.1
20260831162728 15 271 1.6 8.0 0.00 0.00 0.00 81 1010.0
20260831162232 15 271 3.2 8.0 0.00 0.00 0.00 81 1010.0
20260831161728 15 271 1.6 6.4 0.00 0.00 0.00 81 1010.0
20260831161222 15 271 0.0 6.4 0.00 0.00 0.00 82 1009.9
20260831160720 14 271 0.0 0.0 0.00 0.00 0.00 82 1009.9
20260831160219 14 271 0.0 0.0 0.00 0.00 0.00 82 1009.9
20260831155214 14 271 0.0 0.0 0.00 0.00 0.00 83 1009.7
20260831154710 14 271 0.0 0.0 0.00 0.00 0.00 84 1009.7
20260831154206 14 271 0.0 0.0 0.00 0.00 0.00 84 1009.7
20260831153709 14 271 0.0 0.0 0.00 0.00 0.00 84 1009.7
20260831153206 14 271 0.0 0.0 0.00 0.00 0.00 85 1009.7
20260831152659 14 271 0.0 0.0 0.00 0.00 0.00 84 1009.7
20260831152157 13 271 0.0 0.0 0.00 0.00 0.00 84 1009.7
20260831151655 13 271 0.0 0.0 0.00 0.00 0.00 85 1009.7
20260831151149 13 271 0.0 0.0 0.00 0.00 0.00 85 1009.6
20260831150645 13 271 0.0 0.0 0.00 0.00 0.00 85 1009.6
20260831150144 13 271 0.0 0.0 0.00 0.00 0.00 85 1009.6
20260831145145 13 271 0.0 3.2 0.00 0.00 0.00 85 1009.6
20260831144638 13 271 1.6 4.8 0.00 0.00 0.00 85 1009.6
20260831143638 13 271 1.6 4.8 0.00 0.00 0.00 85 1009.4
20260831142636 13 271 1.6 6.4 0.00 0.00 0.00 86 1009.3
20260831141632 13 271 1.6 6.4 0.00 0.00 0.00 86 1009.3
20260831141129 13 271 1.6 6.4 0.00 0.00 0.00 86 1009.0
20260831140630 13 271 1.6 4.8 0.00 0.00 0.00 86 1009.0
20260831140127 13 271 1.6 4.8 0.00 0.00 0.00 86 1009.0
20260831135622 13 271 1.6 3.2 0.00 0.00 0.00 87 1008.4
20260831135120 13 271 0.0 3.2 0.00 0.00 0.00 87 1008.4
20260831134622 13 271 0.0 3.2 0.00 0.00 0.00 87 1008.4
20260831133617 13 271 0.0 3.2 0.00 0.00 0.00 87 1008.3
20260831133113 13 271 0.0 1.6 0.00 0.00 0.00 87 1008.3
20260831132610 13 271 0.0 1.6 0.00 0.00 0.00 87 1008.4
20260831131610 13 271 0.0 4.8 0.00 0.00 0.00 87 1008.4
20260831131108 13 271 0.0 0.0 0.00 0.00 0.00 87 1008.5
20260831130602 13 271 0.0 0.0 0.00 0.00 0.00 87 1008.5
20260831130100 13 271 0.0 0.0 0.00 0.00 0.00 87 1008.5
20260831125556 13 271 0.0 0.0 0.00 0.00 0.00 87 1008.5
20260831125059 13 271 0.0 0.0 0.00 0.00 0.00 86 1008.5
20260831124555 13 271 0.0 0.0 0.00 0.00 0.00 86 1008.5
20260831124055 13 271 0.0 0.0 0.00 0.00 0.00 86 1008.3
20260831123552 13 271 0.0 0.0 0.00 0.00 0.00 86 1008.3
20260831123050 13 271 0.0 0.0 0.00 0.00 0.00 86 1008.3
20260831122547 13 271 0.0 3.2 0.00 0.00 0.00 86 1008.0
20260831122048 13 271 1.6 3.2 0.00 0.00 0.00 87 1008.0
20260831121548 13 271 0.0 3.2 0.00 0.00 0.00 87 1008.0
20260831121053 13 271 0.0 1.6 0.00 0.00 0.00 87 1008.0
20260831120542 13 271 0.0 1.6 0.00 0.00 0.00 87 1008.0
20260831120037 14 271 0.0 3.2 0.00 0.00 0.00 86 1008.0
20260831115034 14 271 0.0 3.2 0.00 0.00 0.00 86 1008.1
20260831113524 14 271 0.0 3.2 0.00 0.00 0.00 86 1008.0
20260831113023 14 271 1.6 3.2 0.00 0.00 0.00 86 1008.0
20260831112525 14 271 0.0 3.2 0.00 0.00 0.00 86 1008.1
20260831112021 14 271 0.0 3.2 0.00 0.00 0.00 86 1008.1
20260831111518 14 271 0.0 3.2 0.00 0.00 0.00 86 1008.1
20260831110512 14 271 0.0 3.2 0.00 0.00 0.00 87 1008.1
20260831110012 14 271 0.0 1.6 0.00 0.00 0.00 87 1008.1
20260831105509 14 271 0.0 0.0 0.00 0.00 0.00 87 1008.2
20260831105010 14 271 0.0 0.0 0.00 0.00 0.00 87 1008.2
20260831104506 14 271 0.0 0.0 0.00 0.00 0.00 87 1008.2
20260831104002 14 271 0.0 3.2 0.00 0.00 0.00 87 1008.2
20260831103500 14 271 1.6 6.4 0.00 0.00 0.00 87 1008.2
20260831102955 14 271 1.6 6.4 0.00 0.00 0.00 87 1008.2
20260831102455 14 271 0.0 4.8 0.00 0.00 0.00 87 1008.1
20260831101956 14 271 0.0 0.0 0.00 0.00 0.00 87 1008.1
20260831101456 14 271 0.0 0.0 0.00 0.00 0.00 87 1008.1
20260831100951 14 271 0.0 0.0 0.00 0.00 0.00 87 1008.1
20260831100453 14 271 0.0 0.0 0.00 0.00 0.00 87 1008.1
20260831095948 14 271 0.0 0.0 0.00 0.00 0.00 86 1008.1
20260831095447 14 271 0.0 0.0 0.00 0.00 0.00 87 1008.2
20260831094947 14 271 0.0 0.0 0.00 0.00 0.00 87 1008.2
20260831094445 14 271 0.0 0.0 0.00 0.00 0.00 87 1008.2
20260831093438 14 271 0.0 3.2 0.00 0.00 0.00 87 1008.3
20260831092939 14 271 1.6 4.8 0.00 0.00 0.00 87 1008.3
20260831092435 14 271 1.6 6.4 0.00 0.00 0.00 87 1008.3
20260831091934 14 271 1.6 6.4 0.00 0.00 0.00 87 1008.3
20260831091434 14 271 1.6 4.8 0.00 0.00 0.00 87 1008.3
20260831090932 14 271 1.6 4.8 0.00 0.00 0.00 87 1008.3
20260831085926 14 271 0.0 4.8 0.00 0.00 0.00 87 1008.3
20260831085420 14 271 1.6 4.8 0.00 0.00 0.00 87 1008.4
20260831084922 14 271 1.6 6.4 0.00 0.00 0.00 87 1008.4
20260831084417 14 271 1.6 6.4 0.00 0.00 0.00 87 1008.4
20260831082914 14 271 3.2 6.4 0.00 0.00 0.00 88 1008.4
20260831082411 14 271 3.2 6.4 0.00 0.00 0.00 88 1008.5
20260831081911 14 271 3.2 6.4 0.00 0.00 0.00 88 1008.5
20260831081409 14 271 3.2 6.4 0.00 0.00 0.00 88 1008.5
20260831080913 14 271 1.6 6.4 0.00 0.00 0.00 88 1008.5
20260831080408 14 271 1.6 4.8 0.00 0.00 0.00 88 1008.5
20260831075908 14 271 1.6 6.4 0.00 0.00 0.00 88 1008.5
20260831075406 14 271 3.2 6.4 0.00 0.00 0.00 88 1008.5
20260831074908 14 271 1.6 4.8 0.00 0.00 0.00 88 1008.5
20260831074409 14 269 1.6 4.8 0.00 0.00 0.00 88 1008.5
20260831073405 14 269 1.6 6.4 0.00 0.00 0.00 88 1008.5
20260831072900 14 269 3.2 9.7 0.00 0.00 0.00 88 1008.5
20260831072400 14 268 3.2 9.7 0.00 0.00 0.00 89 1008.4
20260831071900 14 279 1.6 6.4 0.00 0.00 0.00 89 1008.4
20260831071400 14 273 1.6 6.4 0.00 0.00 0.00 89 1008.5
20260831070858 14 273 3.2 6.4 0.00 0.00 0.00 90 1008.5
20260831070352 14 273 3.2 9.7 0.00 0.00 0.00 90 1008.5
20260831065849 14 273 1.6 9.7 0.00 0.00 0.00 90 1008.4
20260831065346 14 325 1.6 4.8 0.00 0.00 0.00 90 1008.4
20260831064850 14 325 1.6 3.2 0.00 0.00 0.00 90 1008.4
20260831064422 14 325 1.6 6.4 0.00 0.00 0.00 90 1008.4
20260831063844 14 325 3.2 6.4 0.00 0.00 0.00 90 1008.4
20260831063338 14 325 3.2 6.4 0.00 0.00 0.00 90 1008.4
20260831062836 13 325 1.6 6.4 0.00 0.00 0.00 90 1008.5
20260831062337 13 325 0.0 4.8 0.00 0.00 0.00 90 1008.5
20260831061836 13 325 0.0 0.0 0.00 0.00 0.00 90 1008.5
20260831061325 13 325 0.0 0.0 0.00 0.00 0.00 90 1008.5
20260831060326 13 325 0.0 0.0 0.00 0.00 0.00 90 1008.5
20260831055819 13 325 0.0 0.0 0.00 0.00 0.00 90 1008.5
20260831055317 13 325 0.0 0.0 0.00 0.00 0.00 90 1008.5
20260831054813 13 325 0.0 0.0 0.00 0.00 0.00 90 1008.5
20260831054312 13 325 0.0 0.0 0.00 0.00 0.00 90 1008.5
20260831053811 13 325 0.0 6.4 0.00 0.00 0.00 90 1008.5
20260831053314 13 325 0.0 6.4 0.00 0.00 0.00 90 1008.5
20260831052811 14 325 0.0 0.0 0.00 0.00 0.00 90 1008.9
20260831052306 14 325 0.0 3.2 0.00 0.00 0.00 89 1008.9
20260831051257 14 325 1.6 3.2 0.00 0.00 0.00 89 1008.7
20260831050757 14 325 1.6 3.2 0.00 0.00 0.00 89 1008.7
20260831045756 14 325 0.0 3.2 0.00 0.00 0.00 88 1008.6
20260831045256 14 325 1.6 4.8 0.00 0.00 0.00 88 1008.6
20260831044755 14 325 1.6 4.8 0.00 0.00 0.00 88 1008.6
20260831044247 14 325 1.6 6.4 0.00 0.00 0.00 88 1008.5
20260831043746 15 325 1.6 6.4 0.00 0.00 0.00 88 1008.5
20260831043240 15 325 1.6 6.4 0.00 0.00 0.00 88 1008.5
20260831042738 15 325 0.0 4.8 0.00 0.00 0.00 87 1008.4
20260831042236 15 325 0.0 4.8 0.00 0.00 0.00 87 1008.4
20260831040730 15 325 1.6 4.8 0.00 0.00 0.00 87 1008.4
20260831040226 15 325 1.6 6.4 0.00 0.00 0.00 87 1008.4
20260831035725 15 325 3.2 6.4 0.00 0.00 0.00 87 1008.3
20260831035225 15 326 3.2 8.0 0.00 0.00 0.00 87 1008.3
20260831034725 15 319 4.8 11.3 0.00 0.00 0.00 86 1008.3
20260831033214 15 315 3.2 14.5 0.00 0.00 0.00 86 1008.0
20260831032214 15 319 3.2 11.3 0.00 0.00 0.00 87 1007.9
20260831031710 15 311 3.2 8.0 0.00 0.00 0.00 86 1007.9
20260831031207 15 311 3.2 6.4 0.00 0.00 0.00 86 1007.9
20260831030159 15 277 4.8 12.9 0.00 0.00 0.00 86 1007.9
20260831025654 15 294 4.8 9.7 0.00 0.00 0.00 86 1007.9
20260831025156 15 286 3.2 8.0 0.00 0.00 0.00 85 1007.9
20260831024654 15 265 3.2 8.0 0.00 0.00 0.00 85 1007.9
20260831024155 15 286 3.2 19.3 0.00 0.00 0.00 85 1007.9
20260831023652 15 286 4.8 19.3 0.00 0.00 0.00 84 1007.9
20260831023149 15 319 4.8 12.9 0.00 0.00 0.00 84 1007.9
20260831022648 16 309 3.2 8.0 0.00 0.00 0.00 83 1007.9
20260831022149 16 296 3.2 9.7 0.00 0.00 0.00 82 1007.9
20260831021646 16 304 3.2 9.7 0.00 0.00 0.00 82 1007.9
20260831021144 16 309 3.2 9.7 0.00 0.00 0.00 81 1007.9
20260831020639 16 260 3.2 9.7 0.00 0.00 0.00 81 1007.9
20260831020139 16 275 4.8 14.5 0.00 0.00 0.00 80 1007.9
20260831015637 16 274 6.4 14.5 0.00 0.00 0.00 80 1007.8
20260831015139 16 311 6.4 17.7 0.00 0.00 0.00 79 1007.8
20260831014135 17 244 6.4 16.1 0.00 0.00 0.00 77 1007.9
20260831013635 17 286 4.8 16.1 0.00 0.00 0.00 75 1007.9
20260831013130 17 283 4.8 12.9 0.00 0.00 0.00 74 1007.9
20260831012631 18 316 4.8 11.3 0.00 0.00 0.00 73 1008.0
20260831012128 18 304 4.8 9.7 0.00 0.00 0.00 72 1008.0
20260831011625 19 309 6.4 12.9 0.00 0.00 0.00 72 1008.0
20260831011124 19 310 8.0 16.1 0.00 0.00 0.00 71 1008.0
20260831010625 19 321 6.4 16.1 0.00 0.00 0.00 70 1008.0
20260831010122 19 306 6.4 11.3 0.00 0.00 0.00 70 1008.0
20260831005621 19 327 6.4 14.5 0.00 0.00 0.00 70 1007.9
20260831004622 20 294 6.4 16.1 0.00 0.00 0.00 69 1007.9
20260831003616 20 323 8.0 19.3 0.00 0.00 0.00 68 1007.8
20260831003114 20 321 6.4 19.3 0.00 0.00 0.00 67 1007.8
20260831002109 20 304 8.0 16.1 0.00 0.00 0.00 67 1007.7
20260831001607 21 303 6.4 16.1 0.00 0.00 0.00 66 1007.7
20260831001107 21 351 6.4 12.9 0.00 0.00 0.00 66 1007.6
20260831000608 21 304 6.4 14.5 0.00 0.00 0.00 65 1007.6
20260831000111 21 340 6.4 14.5 0.00 0.00 0.00 65 1007.6
20260830235610 21 309 8.0 17.7 0.00 0.00 0.00 65 1007.6
20260830235105 21 300 6.4 17.7 0.00 0.00 0.00 65 1007.6
20260830234104 21 331 8.0 17.7 0.00 0.00 0.00 65 1007.7
20260830233100 21 315 9.7 19.3 0.00 0.00 0.00 65 1007.7
20260830232559 21 18 8.0 17.7 0.00 0.00 0.00 64 1007.9